Time,TemperatureF,DewpointF,PressureIn,WindDirection,WindDirectionDegrees,WindSpeedMPH,WindSpeedGustMPH,Humidity,HourlyPrecipIn,Conditions,Clouds,dailyrainin,SoftwareType,DateUTC
2013-07-31 00:03:00,83.1,45.7,-100.00,SW,216,17.0,25.0,27,0.00,,,0.00,meteohub,2013-07-31 07:03:00,
2013-07-31 00:08:00,82.6,45.1,-100.00,SSW,197,8.0,20.0,27,0.00,,,0.00,meteohub,2013-07-31 07:08:00,
2013-07-31 00:13:00,82.2,45.0,-100.00,SW,219,12.0,18.0,27,0.00,,,0.00,meteohub,2013-07-31 07:13:00,
2013-07-31 00:18:00,82.6,45.1,-100.00,SSW,213,11.0,18.0,27,0.00,,,0.00,meteohub,2013-07-31 07:18:00,
2013-07-31 00:23:00,82.9,44.6,-100.00,SSW,207,7.0,18.0,26,0.00,,,0.00,meteohub,2013-07-31 07:23:00,
2013-07-31 00:28:00,83.3,44.8,-100.00,South,188,8.0,19.0,26,0.00,,,0.00,meteohub,2013-07-31 07:28:00,
2013-07-31 00:33:00,83.3,43.9,-100.00,South,169,9.0,19.0,25,0.00,,,0.00,meteohub,2013-07-31 07:33:00,
2013-07-31 00:38:00,82.6,43.2,-100.00,South,173,4.0,18.0,25,0.00,,,0.00,meteohub,2013-07-31 07:38:00,
2013-07-31 00:43:00,82.2,43.0,-100.00,South,176,7.0,18.0,25,0.00,,,0.00,meteohub,2013-07-31 07:43:00,
2013-07-31 00:48:00,82.4,41.9,-100.00,South,184,4.0,18.0,24,0.00,,,0.00,meteohub,2013-07-31 07:48:00,
2013-07-31 00:53:00,82.9,42.4,-100.00,SSE,157,5.0,10.0,24,0.00,,,0.00,meteohub,2013-07-31 07:53:00,
2013-07-31 00:58:00,82.6,42.1,-100.00,SSW,194,4.0,10.0,24,0.00,,,0.00,meteohub,2013-07-31 07:58:00,
2013-07-31 01:03:00,82.4,43.0,-100.00,South,178,7.0,10.0,25,0.00,,,0.00,meteohub,2013-07-31 08:03:00,
2013-07-31 01:08:00,82.0,42.8,-100.00,ESE,117,3.0,13.0,25,0.00,,,0.00,meteohub,2013-07-31 08:08:00,
2013-07-31 01:13:00,82.0,41.7,-100.00,SW,221,2.0,13.0,24,0.00,,,0.00,meteohub,2013-07-31 08:13:00,
2013-07-31 01:18:00,81.7,42.4,-100.00,SSW,210,3.0,13.0,25,0.00,,,0.00,meteohub,2013-07-31 08:18:00,
2013-07-31 01:23:00,82.2,41.9,-100.00,SW,214,3.0,11.0,24,0.00,,,0.00,meteohub,2013-07-31 08:23:00,
2013-07-31 01:28:00,82.2,41.9,-100.00,SW,234,4.0,12.0,24,0.00,,,0.00,meteohub,2013-07-31 08:28:00,
2013-07-31 01:33:00,82.0,42.8,-100.00,WNW,296,7.0,12.0,25,0.00,,,0.00,meteohub,2013-07-31 08:33:00,
2013-07-31 01:38:00,82.6,43.2,-100.00,West,272,6.0,11.0,25,0.00,,,0.00,meteohub,2013-07-31 08:38:00,
2013-07-31 01:43:00,81.9,43.7,-100.00,SW,236,8.0,8.0,26,0.00,,,0.00,meteohub,2013-07-31 08:43:00,
2013-07-31 01:48:00,81.1,43.0,-100.00,South,181,5.0,9.0,26,0.00,,,0.00,meteohub,2013-07-31 08:48:00,
2013-07-31 01:53:00,81.7,42.4,-100.00,South,188,4.0,10.0,25,0.00,,,0.00,meteohub,2013-07-31 08:53:00,
2013-07-31 01:58:00,81.1,43.0,-100.00,SSE,167,3.0,10.0,26,0.00,,,0.00,meteohub,2013-07-31 08:58:00,
2013-07-31 02:03:00,80.4,43.3,-100.00,SSE,161,2.0,10.0,27,0.00,,,0.00,meteohub,2013-07-31 09:03:00,
2013-07-31 02:08:00,79.7,42.8,-100.00,NE,43,2.0,10.0,27,0.00,,,0.00,meteohub,2013-07-31 09:08:00,
2013-07-31 02:13:00,80.1,43.0,-100.00,NE,40,0.0,5.0,27,0.00,,,0.00,meteohub,2013-07-31 09:13:00,
2013-07-31 02:18:00,80.2,43.2,-100.00,NE,40,1.0,3.0,27,0.00,,,0.00,meteohub,2013-07-31 09:18:00,
2013-07-31 02:23:00,80.1,43.0,-100.00,NE,38,2.0,4.0,27,0.00,,,0.00,meteohub,2013-07-31 09:23:00,
2013-07-31 02:28:00,80.1,44.1,-100.00,NNW,336,2.0,4.0,28,0.00,,,0.00,meteohub,2013-07-31 09:28:00,
2013-07-31 02:33:00,79.9,43.9,-100.00,NNW,336,3.0,5.0,28,0.00,,,0.00,meteohub,2013-07-31 09:33:00,
2013-07-31 02:38:00,79.3,44.2,-100.00,NW,316,4.0,5.0,29,0.00,,,0.00,meteohub,2013-07-31 09:38:00,
2013-07-31 02:43:00,78.3,44.2,-100.00,NW,316,3.0,5.0,30,0.00,,,0.00,meteohub,2013-07-31 09:43:00,
2013-07-31 02:48:00,77.4,45.1,-100.00,WNW,299,5.0,6.0,32,0.00,,,0.00,meteohub,2013-07-31 09:48:00,
2013-07-31 02:53:00,76.3,45.1,-100.00,WNW,290,3.0,6.0,33,0.00,,,0.00,meteohub,2013-07-31 09:53:00,
2013-07-31 02:58:00,75.9,44.8,-100.00,West,277,4.0,6.0,33,0.00,,,0.00,meteohub,2013-07-31 09:58:00,
2013-07-31 03:03:00,76.3,45.1,-100.00,West,263,6.0,6.0,33,0.00,,,0.00,meteohub,2013-07-31 10:03:00,
2013-07-31 03:08:00,75.7,45.3,-100.00,West,262,3.0,6.0,34,0.00,,,0.00,meteohub,2013-07-31 10:08:00,
2013-07-31 03:13:00,75.7,45.3,-100.00,West,262,5.0,6.0,34,0.00,,,0.00,meteohub,2013-07-31 10:13:00,
2013-07-31 03:18:00,75.6,45.1,-100.00,West,259,5.0,7.0,34,0.00,,,0.00,meteohub,2013-07-31 10:18:00,
2013-07-31 03:23:00,75.6,46.0,-100.00,WSW,249,6.0,8.0,35,0.00,,,0.00,meteohub,2013-07-31 10:23:00,
2013-07-31 03:28:00,75.2,45.0,-100.00,WSW,250,6.0,10.0,34,0.00,,,0.00,meteohub,2013-07-31 10:28:00,
2013-07-31 03:33:00,74.8,43.9,-100.00,SW,219,5.0,11.0,33,0.00,,,0.00,meteohub,2013-07-31 10:33:00,
2013-07-31 03:38:00,74.8,44.6,-100.00,SW,230,8.0,11.0,34,0.00,,,0.00,meteohub,2013-07-31 10:38:00,
2013-07-31 03:43:00,74.8,43.9,-100.00,SW,234,9.0,12.0,33,0.00,,,0.00,meteohub,2013-07-31 10:43:00,
2013-07-31 03:48:00,74.8,44.6,-100.00,WSW,251,1.0,13.0,34,0.00,,,0.00,meteohub,2013-07-31 10:48:00,
2013-07-31 03:53:00,74.7,44.4,-100.00,WSW,257,6.0,13.0,34,0.00,,,0.00,meteohub,2013-07-31 10:53:00,
2013-07-31 03:58:00,74.1,44.8,-100.00,WSW,246,5.0,13.0,35,0.00,,,0.00,meteohub,2013-07-31 10:58:00,
2013-07-31 04:03:00,74.5,44.2,-100.00,WSW,242,6.0,10.0,34,0.00,,,0.00,meteohub,2013-07-31 11:03:00,
2013-07-31 04:08:00,74.8,44.6,-100.00,SW,227,3.0,10.0,34,0.00,,,0.00,meteohub,2013-07-31 11:08:00,
2013-07-31 04:13:00,74.1,44.8,-100.00,SW,225,3.0,10.0,35,0.00,,,0.00,meteohub,2013-07-31 11:13:00,
2013-07-31 04:18:00,73.8,45.1,-100.00,WSW,242,6.0,8.0,36,0.00,,,0.00,meteohub,2013-07-31 11:18:00,
2013-07-31 04:23:00,73.9,45.3,-100.00,WSW,244,6.0,10.0,36,0.00,,,0.00,meteohub,2013-07-31 11:23:00,
2013-07-31 04:28:00,73.8,45.1,-100.00,SW,236,5.0,10.0,36,0.00,,,0.00,meteohub,2013-07-31 11:28:00,
2013-07-31 04:33:00,73.6,45.0,-100.00,SW,231,3.0,10.0,36,0.00,,,0.00,meteohub,2013-07-31 11:33:00,
2013-07-31 04:38:00,73.6,45.0,-100.00,SW,227,4.0,7.0,36,0.00,,,0.00,meteohub,2013-07-31 11:38:00,
2013-07-31 04:43:00,73.2,45.3,-100.00,SW,227,0.0,7.0,37,0.00,,,0.00,meteohub,2013-07-31 11:43:00,
2013-07-31 04:48:00,73.6,45.7,-100.00,SW,227,1.0,7.0,37,0.00,,,0.00,meteohub,2013-07-31 11:48:00,
2013-07-31 04:53:00,73.0,45.9,-100.00,SW,227,0.0,5.0,38,0.00,,,0.00,meteohub,2013-07-31 11:53:00,
2013-07-31 04:58:00,72.3,46.0,-100.00,SW,227,2.0,3.0,39,0.00,,,0.00,meteohub,2013-07-31 11:58:00,
2013-07-31 05:03:00,71.8,46.2,-100.00,SW,227,1.0,2.0,40,0.00,,,0.00,meteohub,2013-07-31 12:03:00,
2013-07-31 05:08:00,72.0,45.7,-100.00,SW,227,2.0,2.0,39,0.00,,,0.00,meteohub,2013-07-31 12:08:00,
2013-07-31 05:13:00,71.8,44.8,-100.00,SW,227,3.0,3.0,38,0.00,,,0.00,meteohub,2013-07-31 12:13:00,
2013-07-31 05:18:00,71.4,45.1,-100.00,SW,227,4.0,4.0,39,0.00,,,0.00,meteohub,2013-07-31 12:18:00,
2013-07-31 05:23:00,71.6,44.6,-100.00,SW,227,2.0,4.0,38,0.00,,,0.00,meteohub,2013-07-31 12:23:00,
2013-07-31 05:28:00,71.8,44.8,-100.00,SW,227,0.0,4.0,38,0.00,,,0.00,meteohub,2013-07-31 12:28:00,
2013-07-31 05:33:00,71.6,44.6,-100.00,SW,227,0.0,4.0,38,0.00,,,0.00,meteohub,2013-07-31 12:33:00,
2013-07-31 05:38:00,71.4,44.4,-100.00,SW,227,0.0,4.0,38,0.00,,,0.00,meteohub,2013-07-31 12:38:00,
2013-07-31 05:43:00,71.1,44.8,-100.00,SW,227,4.0,4.0,39,0.00,,,0.00,meteohub,2013-07-31 12:43:00,
2013-07-31 05:48:00,70.7,45.1,-100.00,WSW,240,6.0,6.0,40,0.00,,,0.00,meteohub,2013-07-31 12:48:00,
2013-07-31 05:53:00,70.9,44.8,-100.00,WSW,242,5.0,6.0,39,0.00,,,0.00,meteohub,2013-07-31 12:53:00,
2013-07-31 05:58:00,71.2,44.2,-100.00,WSW,248,4.0,8.0,38,0.00,,,0.00,meteohub,2013-07-31 12:58:00,
2013-07-31 06:03:00,71.2,44.2,-100.00,WSW,243,2.0,8.0,38,0.00,,,0.00,meteohub,2013-07-31 13:03:00,
2013-07-31 06:08:00,71.1,44.2,-100.00,WSW,243,0.0,8.0,38,0.00,,,0.00,meteohub,2013-07-31 13:08:00,
2013-07-31 06:13:00,70.9,44.8,-100.00,WSW,243,1.0,6.0,39,0.00,,,0.00,meteohub,2013-07-31 13:13:00,
2013-07-31 06:18:00,71.1,44.8,-100.00,WSW,243,0.0,5.0,39,0.00,,,0.00,meteohub,2013-07-31 13:18:00,
2013-07-31 06:23:00,71.4,45.1,-100.00,WSW,243,1.0,2.0,39,0.00,,,0.00,meteohub,2013-07-31 13:23:00,
2013-07-31 06:28:00,71.6,45.3,-100.00,WSW,243,0.0,2.0,39,0.00,,,0.00,meteohub,2013-07-31 13:28:00,
2013-07-31 06:33:00,72.3,44.6,-100.00,WSW,242,4.0,4.0,37,0.00,,,0.00,meteohub,2013-07-31 13:33:00,
2013-07-31 06:38:00,72.3,44.6,-100.00,SSW,197,3.0,7.0,37,0.00,,,0.00,meteohub,2013-07-31 13:38:00,
2013-07-31 06:43:00,73.0,44.4,-100.00,SSW,197,2.0,8.0,36,0.00,,,0.00,meteohub,2013-07-31 13:43:00,
2013-07-31 06:48:00,73.8,45.1,-100.00,SSW,197,1.0,8.0,36,0.00,,,0.00,meteohub,2013-07-31 13:48:00,
2013-07-31 06:53:00,74.7,44.4,-100.00,SSW,197,1.0,8.0,34,0.00,,,0.00,meteohub,2013-07-31 13:53:00,
2013-07-31 06:58:00,74.8,44.6,-100.00,SSW,198,3.0,4.0,34,0.00,,,0.00,meteohub,2013-07-31 13:58:00,
2013-07-31 07:03:00,75.2,45.0,-100.00,SSW,194,2.0,4.0,34,0.00,,,0.00,meteohub,2013-07-31 14:03:00,
2013-07-31 07:08:00,75.7,44.6,-100.00,SSW,192,0.0,5.0,33,0.00,,,0.00,meteohub,2013-07-31 14:08:00,
2013-07-31 07:13:00,76.3,46.6,-100.00,SSW,192,0.0,5.0,35,0.00,,,0.00,meteohub,2013-07-31 14:13:00,
2013-07-31 07:18:00,76.8,46.4,-100.00,SSW,192,2.0,5.0,34,0.00,,,0.00,meteohub,2013-07-31 14:18:00,
2013-07-31 07:23:00,77.4,46.8,-100.00,SSW,192,2.0,3.0,34,0.00,,,0.00,meteohub,2013-07-31 14:23:00,
2013-07-31 07:28:00,77.2,46.6,-100.00,South,175,0.0,3.0,34,0.00,,,0.00,meteohub,2013-07-31 14:28:00,
2013-07-31 07:33:00,77.4,46.8,-100.00,SE,139,2.0,3.0,34,0.00,,,0.00,meteohub,2013-07-31 14:33:00,
2013-07-31 07:38:00,77.5,46.9,-100.00,ESE,117,3.0,3.0,34,0.00,,,0.00,meteohub,2013-07-31 14:38:00,
2013-07-31 07:43:00,78.1,46.6,-100.00,ESE,117,2.0,4.0,33,0.00,,,0.00,meteohub,2013-07-31 14:43:00,
2013-07-31 07:48:00,79.0,45.7,-100.00,ESE,117,2.0,4.0,31,0.00,,,0.00,meteohub,2013-07-31 14:48:00,
2013-07-31 07:53:00,79.2,45.9,-100.00,ESE,115,2.0,3.0,31,0.00,,,0.00,meteohub,2013-07-31 14:53:00,
2013-07-31 07:58:00,79.5,45.3,-100.00,ESE,115,1.0,3.0,30,0.00,,,0.00,meteohub,2013-07-31 14:58:00,
2013-07-31 08:03:00,79.9,45.7,-100.00,ESE,111,1.0,3.0,30,0.00,,,0.00,meteohub,2013-07-31 15:03:00,
2013-07-31 08:08:00,80.2,45.1,-100.00,NE,48,0.0,3.0,29,0.00,,,0.00,meteohub,2013-07-31 15:08:00,
2013-07-31 08:13:00,81.0,45.7,-100.00,NE,45,0.0,2.0,29,0.00,,,0.00,meteohub,2013-07-31 15:13:00,
2013-07-31 08:18:00,81.5,46.2,-100.00,NNE,28,2.0,2.0,29,0.00,,,0.00,meteohub,2013-07-31 15:18:00,
2013-07-31 08:23:00,81.7,45.3,-100.00,NNE,22,3.0,3.0,28,0.00,,,0.00,meteohub,2013-07-31 15:23:00,
2013-07-31 08:28:00,82.4,45.1,-100.00,NNW,341,2.0,4.0,27,0.00,,,0.00,meteohub,2013-07-31 15:28:00,
2013-07-31 08:33:00,82.2,43.9,-100.00,NNW,338,2.0,4.0,26,0.00,,,0.00,meteohub,2013-07-31 15:33:00,
2013-07-31 08:38:00,82.8,43.3,-100.00,NNW,338,0.0,4.0,25,0.00,,,0.00,meteohub,2013-07-31 15:38:00,
2013-07-31 08:43:00,83.7,45.1,-100.00,NNW,338,0.0,4.0,26,0.00,,,0.00,meteohub,2013-07-31 15:43:00,
2013-07-31 08:48:00,84.4,43.7,-100.00,NNW,346,0.0,4.0,24,0.00,,,0.00,meteohub,2013-07-31 15:48:00,
2013-07-31 08:53:00,84.7,45.0,-100.00,NNW,346,2.0,4.0,25,0.00,,,0.00,meteohub,2013-07-31 15:53:00,
2013-07-31 08:58:00,84.6,42.6,-100.00,NNW,346,2.0,4.0,23,0.00,,,0.00,meteohub,2013-07-31 15:58:00,
2013-07-31 09:03:00,84.9,43.0,-100.00,NNW,346,2.0,4.0,23,0.00,,,0.00,meteohub,2013-07-31 16:03:00,
2013-07-31 09:08:00,84.7,42.8,-100.00,WNW,300,4.0,4.0,23,0.00,,,0.00,meteohub,2013-07-31 16:08:00,
2013-07-31 09:13:00,84.4,42.6,-100.00,WNW,290,1.0,6.0,23,0.00,,,0.00,meteohub,2013-07-31 16:13:00,
2013-07-31 09:18:00,84.7,42.8,-100.00,WNW,302,2.0,6.0,23,0.00,,,0.00,meteohub,2013-07-31 16:18:00,
2013-07-31 09:23:00,85.3,43.3,-100.00,WNW,302,1.0,6.0,23,0.00,,,0.00,meteohub,2013-07-31 16:23:00,
2013-07-31 09:28:00,85.6,42.4,-100.00,WNW,302,2.0,3.0,22,0.00,,,0.00,meteohub,2013-07-31 16:28:00,
2013-07-31 09:33:00,85.3,42.1,-100.00,WNW,302,0.0,3.0,22,0.00,,,0.00,meteohub,2013-07-31 16:33:00,
2013-07-31 09:38:00,86.2,42.8,-100.00,WNW,302,0.0,3.0,22,0.00,,,0.00,meteohub,2013-07-31 16:38:00,
2013-07-31 09:43:00,87.1,42.4,-100.00,WNW,303,2.0,3.0,21,0.00,,,0.00,meteohub,2013-07-31 16:43:00,
2013-07-31 09:48:00,87.8,43.0,-100.00,WNW,303,1.0,4.0,21,0.00,,,0.00,meteohub,2013-07-31 16:48:00,
2013-07-31 09:53:00,88.9,43.9,-100.00,NNE,28,2.0,4.0,21,0.00,,,0.00,meteohub,2013-07-31 16:53:00,
2013-07-31 09:58:00,89.1,42.8,-100.00,NNE,26,2.0,6.0,20,0.00,,,0.00,meteohub,2013-07-31 16:58:00,
2013-07-31 10:03:00,87.8,43.0,-100.00,NNE,21,1.0,6.0,21,0.00,,,0.00,meteohub,2013-07-31 17:03:00,
2013-07-31 10:08:00,89.2,43.0,-100.00,NE,37,4.0,4.0,20,0.00,,,0.00,meteohub,2013-07-31 17:08:00,
2013-07-31 10:13:00,89.6,41.9,-100.00,NE,34,2.0,5.0,19,0.00,,,0.00,meteohub,2013-07-31 17:13:00,
2013-07-31 10:18:00,89.8,42.1,-100.00,NE,34,1.0,5.0,19,0.00,,,0.00,meteohub,2013-07-31 17:18:00,
2013-07-31 10:23:00,89.8,42.1,-100.00,NE,34,1.0,5.0,19,0.00,,,0.00,meteohub,2013-07-31 17:23:00,
2013-07-31 10:28:00,89.4,41.7,-100.00,North,5,4.0,5.0,19,0.00,,,0.00,meteohub,2013-07-31 17:28:00,
2013-07-31 10:33:00,88.5,41.0,-100.00,NNW,333,1.0,6.0,19,0.00,,,0.00,meteohub,2013-07-31 17:33:00,
2013-07-31 10:38:00,89.4,41.7,-100.00,NNW,333,0.0,6.0,19,0.00,,,0.00,meteohub,2013-07-31 17:38:00,
2013-07-31 10:43:00,89.2,41.5,-100.00,NNW,333,2.0,6.0,19,0.00,,,0.00,meteohub,2013-07-31 17:43:00,
2013-07-31 10:48:00,91.6,42.1,-100.00,NNE,30,3.0,5.0,18,0.00,,,0.00,meteohub,2013-07-31 17:48:00,
2013-07-31 10:53:00,93.0,40.3,-100.00,NNE,30,1.0,5.0,16,0.00,,,0.00,meteohub,2013-07-31 17:53:00,
2013-07-31 10:58:00,92.3,41.2,-100.00,NNE,29,3.0,5.0,17,0.00,,,0.00,meteohub,2013-07-31 17:58:00,
2013-07-31 11:03:00,92.1,41.0,-100.00,NNE,25,2.0,5.0,17,0.00,,,0.00,meteohub,2013-07-31 18:03:00,
2013-07-31 11:08:00,91.8,40.8,-100.00,NNE,23,1.0,5.0,17,0.00,,,0.00,meteohub,2013-07-31 18:08:00,
2013-07-31 11:13:00,92.7,41.5,-100.00,SE,135,1.0,5.0,17,0.00,,,0.00,meteohub,2013-07-31 18:13:00,
2013-07-31 11:18:00,93.4,42.1,-100.00,SE,133,0.0,5.0,17,0.00,,,0.00,meteohub,2013-07-31 18:18:00,
2013-07-31 11:23:00,93.6,42.3,-100.00,ESE,117,2.0,5.0,17,0.00,,,0.00,meteohub,2013-07-31 18:23:00,
2013-07-31 11:28:00,95.2,41.9,-100.00,NE,42,3.0,4.0,16,0.00,,,0.00,meteohub,2013-07-31 18:28:00,
2013-07-31 11:33:00,94.8,41.7,-100.00,NNE,22,2.0,6.0,16,0.00,,,0.00,meteohub,2013-07-31 18:33:00,
2013-07-31 11:38:00,93.0,41.7,-100.00,NW,309,4.0,6.0,17,0.00,,,0.00,meteohub,2013-07-31 18:38:00,
2013-07-31 11:43:00,93.0,44.6,-100.00,WSW,237,5.0,9.0,19,0.00,,,0.00,meteohub,2013-07-31 18:43:00,
2013-07-31 11:48:00,93.9,42.4,-100.00,SSW,209,0.0,9.0,17,0.00,,,0.00,meteohub,2013-07-31 18:48:00,
2013-07-31 11:53:00,95.5,43.7,-100.00,SSW,211,0.0,9.0,17,0.00,,,0.00,meteohub,2013-07-31 18:53:00,
2013-07-31 11:58:00,94.6,43.0,-100.00,SW,229,0.0,7.0,17,0.00,,,0.00,meteohub,2013-07-31 18:58:00,
2013-07-31 12:03:00,97.0,43.3,-100.00,South,183,2.0,7.0,16,0.00,,,0.00,meteohub,2013-07-31 19:03:00,
2013-07-31 12:08:00,97.3,43.7,-100.00,SE,146,3.0,10.0,16,0.00,,,0.00,meteohub,2013-07-31 19:08:00,
2013-07-31 12:13:00,96.6,43.0,-100.00,SW,221,2.0,10.0,16,0.00,,,0.00,meteohub,2013-07-31 19:13:00,
2013-07-31 12:18:00,97.5,43.7,-100.00,ESE,123,9.0,10.0,16,0.00,,,0.00,meteohub,2013-07-31 19:18:00,
2013-07-31 12:23:00,97.9,42.4,-100.00,SE,136,7.0,13.0,15,0.00,,,0.00,meteohub,2013-07-31 19:23:00,
2013-07-31 12:28:00,97.2,41.9,-100.00,ESE,103,5.0,13.0,15,0.00,,,0.00,meteohub,2013-07-31 19:28:00,
2013-07-31 12:33:00,99.1,41.5,-100.00,ESE,103,11.0,13.0,14,0.00,,,0.00,meteohub,2013-07-31 19:33:00,
2013-07-31 12:38:00,98.6,41.2,-100.00,South,182,11.0,13.0,14,0.00,,,0.00,meteohub,2013-07-31 19:38:00,
2013-07-31 12:43:00,98.4,39.2,-100.00,South,174,4.0,13.0,13,0.00,,,0.00,meteohub,2013-07-31 19:43:00,
2013-07-31 12:48:00,97.0,39.9,-100.00,SW,236,6.0,15.0,14,0.00,,,0.00,meteohub,2013-07-31 19:48:00,
2013-07-31 12:53:00,98.6,41.2,-100.00,East,89,7.0,15.0,14,0.00,,,0.00,meteohub,2013-07-31 19:53:00,
2013-07-31 12:58:00,99.7,40.1,-100.00,SE,128,4.0,15.0,13,0.00,,,0.00,meteohub,2013-07-31 19:58:00,
2013-07-31 13:03:00,99.1,39.7,-100.00,SSW,209,8.0,10.0,13,0.00,,,0.00,meteohub,2013-07-31 20:03:00,
2013-07-31 13:08:00,100.0,36.1,-100.00,SE,146,10.0,18.0,11,0.00,,,0.00,meteohub,2013-07-31 20:08:00,
2013-07-31 13:13:00,99.7,30.9,-100.00,SSW,199,16.0,18.0,9,0.00,,,0.00,meteohub,2013-07-31 20:13:00,
2013-07-31 13:18:00,99.5,35.8,-100.00,South,175,11.0,20.0,11,0.00,,,0.00,meteohub,2013-07-31 20:18:00,
2013-07-31 13:23:00,99.0,32.9,-100.00,SSW,195,22.0,22.0,10,0.00,,,0.00,meteohub,2013-07-31 20:23:00,
2013-07-31 13:28:00,98.8,35.2,-100.00,SW,225,11.0,21.0,11,0.00,,,0.00,meteohub,2013-07-31 20:28:00,
2013-07-31 13:33:00,98.6,35.1,-100.00,SSE,150,5.0,23.0,11,0.00,,,0.00,meteohub,2013-07-31 20:33:00,
2013-07-31 13:38:00,99.3,35.6,-100.00,South,170,16.0,23.0,11,0.00,,,0.00,meteohub,2013-07-31 20:38:00,
2013-07-31 13:43:00,99.0,35.2,-100.00,SW,215,12.0,19.0,11,0.00,,,0.00,meteohub,2013-07-31 20:43:00,
2013-07-31 13:48:00,98.8,35.2,-100.00,SSW,211,11.0,19.0,11,0.00,,,0.00,meteohub,2013-07-31 20:48:00,
2013-07-31 13:53:00,98.8,37.4,-100.00,SSW,199,7.0,19.0,12,0.00,,,0.00,meteohub,2013-07-31 20:53:00,
2013-07-31 13:58:00,99.0,37.6,-100.00,SW,219,7.0,19.0,12,0.00,,,0.00,meteohub,2013-07-31 20:58:00,
2013-07-31 14:03:00,99.3,35.6,-100.00,SW,228,11.0,16.0,11,0.00,,,0.00,meteohub,2013-07-31 21:03:00,
2013-07-31 14:08:00,99.0,32.9,-100.00,SW,227,9.0,20.0,10,0.00,,,0.00,meteohub,2013-07-31 21:08:00,
2013-07-31 14:13:00,99.1,30.4,-100.00,SW,231,12.0,20.0,9,0.00,,,0.00,meteohub,2013-07-31 21:13:00,
2013-07-31 14:18:00,98.8,30.2,-100.00,SW,218,5.0,20.0,9,0.00,,,0.00,meteohub,2013-07-31 21:18:00,
2013-07-31 14:23:00,99.1,30.4,-100.00,SW,215,9.0,20.0,9,0.00,,,0.00,meteohub,2013-07-31 21:23:00,
2013-07-31 14:28:00,99.1,27.5,-100.00,South,186,18.0,22.0,8,0.00,,,0.00,meteohub,2013-07-31 21:28:00,
2013-07-31 14:33:00,99.3,27.7,-100.00,SSW,211,11.0,23.0,8,0.00,,,0.00,meteohub,2013-07-31 21:33:00,
2013-07-31 14:38:00,99.0,24.3,-100.00,SW,217,3.0,23.0,7,0.00,,,0.00,meteohub,2013-07-31 21:38:00,
2013-07-31 14:43:00,99.3,20.8,-100.00,SW,215,9.0,23.0,6,0.00,,,0.00,meteohub,2013-07-31 21:43:00,
2013-07-31 14:48:00,99.5,20.8,-100.00,SW,225,17.0,23.0,6,0.00,,,0.00,meteohub,2013-07-31 21:48:00,
2013-07-31 14:53:00,99.3,24.4,-100.00,South,178,14.0,22.0,7,0.00,,,0.00,meteohub,2013-07-31 21:53:00,
2013-07-31 14:58:00,99.5,24.6,-100.00,SW,221,15.0,22.0,7,0.00,,,0.00,meteohub,2013-07-31 21:58:00,
2013-07-31 15:03:00,99.3,24.4,-100.00,West,273,5.0,22.0,7,0.00,,,0.00,meteohub,2013-07-31 22:03:00,
2013-07-31 15:08:00,99.1,27.5,-100.00,SW,226,2.0,22.0,8,0.00,,,0.00,meteohub,2013-07-31 22:08:00,
2013-07-31 15:09:00,99.1,27.5,-100.00,South,191,6.0,22.0,8,0.00,,,0.00,meteohub,2013-07-31 22:09:00,
2013-07-31 15:14:00,99.9,28.0,-100.00,SSW,212,3.0,19.0,8,0.00,,,0.00,meteohub,2013-07-31 22:14:00,
2013-07-31 15:19:00,99.9,30.9,-100.00,South,181,17.0,20.0,9,0.00,,,0.00,meteohub,2013-07-31 22:19:00,
2013-07-31 15:24:00,99.9,28.0,-100.00,South,174,15.0,20.0,8,0.00,,,0.00,meteohub,2013-07-31 22:24:00,
2013-07-31 15:29:00,100.0,28.2,-100.00,SW,236,8.0,25.0,8,0.00,,,0.00,meteohub,2013-07-31 22:29:00,
2013-07-31 15:34:00,100.0,28.2,-100.00,SW,228,8.0,25.0,8,0.00,,,0.00,meteohub,2013-07-31 22:34:00,
2013-07-31 15:39:00,100.0,28.2,-100.00,West,277,9.0,25.0,8,0.00,,,0.00,meteohub,2013-07-31 22:39:00,
2013-07-31 15:44:00,100.2,28.4,-100.00,WSW,254,8.0,20.0,8,0.00,,,0.00,meteohub,2013-07-31 22:44:00,
2013-07-31 15:49:00,100.2,25.2,-100.00,WSW,242,12.0,20.0,7,0.00,,,0.00,meteohub,2013-07-31 22:49:00,
2013-07-31 15:54:00,100.2,25.2,-100.00,SSW,205,9.0,18.0,7,0.00,,,0.00,meteohub,2013-07-31 22:54:00,
2013-07-31 15:59:00,100.0,25.0,-100.00,South,187,15.0,24.0,7,0.00,,,0.00,meteohub,2013-07-31 22:59:00,
2013-07-31 16:04:00,100.2,21.4,-100.00,South,173,5.0,24.0,6,0.00,,,0.00,meteohub,2013-07-31 23:04:00,
2013-07-31 16:09:00,100.8,25.5,-100.00,SW,234,13.0,25.0,7,0.00,,,0.00,meteohub,2013-07-31 23:09:00,
2013-07-31 16:14:00,100.8,28.8,-100.00,WSW,240,12.0,25.0,8,0.00,,,0.00,meteohub,2013-07-31 23:14:00,
2013-07-31 16:19:00,100.8,25.5,-100.00,WSW,238,7.0,25.0,7,0.00,,,0.00,meteohub,2013-07-31 23:19:00,
2013-07-31 16:24:00,100.6,25.3,-100.00,SW,232,8.0,21.0,7,0.00,,,0.00,meteohub,2013-07-31 23:24:00,
2013-07-31 16:29:00,99.9,24.8,-100.00,WNW,288,6.0,21.0,7,0.00,,,0.00,meteohub,2013-07-31 23:29:00,
2013-07-31 16:34:00,100.2,25.2,-100.00,SW,220,11.0,17.0,7,0.00,,,0.00,meteohub,2013-07-31 23:34:00,
2013-07-31 16:39:00,100.4,25.2,-100.00,SW,215,8.0,18.0,7,0.00,,,0.00,meteohub,2013-07-31 23:39:00,
2013-07-31 16:44:00,100.2,25.2,-100.00,SSW,209,4.0,19.0,7,0.00,,,0.00,meteohub,2013-07-31 23:44:00,
2013-07-31 16:49:00,100.0,25.0,-100.00,WSW,248,9.0,19.0,7,0.00,,,0.00,meteohub,2013-07-31 23:49:00,
2013-07-31 16:57:00,100.2,21.4,-100.00,WSW,250,11.0,18.0,6,0.00,,,0.00,meteohub,2013-07-31 23:57:00,
2013-07-31 17:02:00,100.0,21.4,-100.00,WSW,252,12.0,18.0,6,0.00,,,0.00,meteohub,2013-08-01 00:02:00,
2013-07-31 17:07:00,99.9,16.9,-100.00,SSW,192,5.0,18.0,5,0.00,,,0.00,meteohub,2013-08-01 00:07:00,
2013-07-31 17:12:00,100.4,17.2,-100.00,SW,223,14.0,21.0,5,0.00,,,0.00,meteohub,2013-08-01 00:12:00,
2013-07-31 17:17:00,100.0,17.1,-100.00,SW,229,17.0,21.0,5,0.00,,,0.00,meteohub,2013-08-01 00:17:00,
2013-07-31 17:22:00,99.9,16.9,-100.00,West,263,12.0,21.0,5,0.00,,,0.00,meteohub,2013-08-01 00:22:00,
2013-07-31 17:27:00,100.2,17.2,-100.00,SSW,211,7.0,21.0,5,0.00,,,0.00,meteohub,2013-08-01 00:27:00,
2013-07-31 17:32:00,100.2,12.0,-100.00,WSW,254,13.0,20.0,4,0.00,,,0.00,meteohub,2013-08-01 00:32:00,
2013-07-31 17:37:00,99.9,11.8,-100.00,SSW,212,5.0,20.0,4,0.00,,,0.00,meteohub,2013-08-01 00:37:00,
2013-07-31 17:42:00,99.7,11.7,-100.00,SSW,207,11.0,20.0,4,0.00,,,0.00,meteohub,2013-08-01 00:42:00,
2013-07-31 17:47:00,99.7,5.4,-100.00,West,266,10.0,20.0,3,0.00,,,0.00,meteohub,2013-08-01 00:47:00,
2013-07-31 17:52:00,99.5,11.7,-100.00,SW,229,5.0,20.0,4,0.00,,,0.00,meteohub,2013-08-01 00:52:00,
2013-07-31 17:57:00,99.5,5.2,-100.00,SSW,213,4.0,17.0,3,0.00,,,0.00,meteohub,2013-08-01 00:57:00,
2013-07-31 18:02:00,99.5,11.7,-100.00,SW,216,5.0,15.0,4,0.00,,,0.00,meteohub,2013-08-01 01:02:00,
2013-07-31 18:07:00,99.1,11.3,-100.00,SW,215,10.0,15.0,4,0.00,,,0.00,meteohub,2013-08-01 01:07:00,
2013-07-31 18:12:00,99.0,11.3,-100.00,SSW,211,12.0,17.0,4,0.00,,,0.00,meteohub,2013-08-01 01:12:00,
2013-07-31 18:17:00,98.8,4.8,-100.00,SSW,201,5.0,17.0,3,0.00,,,0.00,meteohub,2013-08-01 01:17:00,
2013-07-31 18:22:00,98.6,10.9,-100.00,SW,235,12.0,17.0,4,0.00,,,0.00,meteohub,2013-08-01 01:22:00,
2013-07-31 18:27:00,98.2,10.8,-100.00,South,189,10.0,18.0,4,0.00,,,0.00,meteohub,2013-08-01 01:27:00,
2013-07-31 18:32:00,98.1,10.6,-100.00,SW,225,14.0,18.0,4,0.00,,,0.00,meteohub,2013-08-01 01:32:00,
2013-07-31 18:37:00,97.5,10.2,-100.00,SW,224,9.0,18.0,4,0.00,,,0.00,meteohub,2013-08-01 01:37:00,
2013-07-31 18:42:00,97.3,15.1,-100.00,SSW,205,9.0,19.0,5,0.00,,,0.00,meteohub,2013-08-01 01:42:00,
2013-07-31 18:47:00,97.2,15.1,-100.00,SSW,195,8.0,19.0,5,0.00,,,0.00,meteohub,2013-08-01 01:47:00,
2013-07-31 18:52:00,96.8,19.0,-100.00,SSW,212,8.0,19.0,6,0.00,,,0.00,meteohub,2013-08-01 01:52:00,
2013-07-31 18:57:00,96.4,18.7,-100.00,SSW,205,12.0,17.0,6,0.00,,,0.00,meteohub,2013-08-01 01:57:00,
2013-07-31 19:02:00,96.3,18.7,-100.00,SW,217,6.0,17.0,6,0.00,,,0.00,meteohub,2013-08-01 02:02:00,
2013-07-31 19:07:00,95.9,18.3,-100.00,WSW,242,10.0,16.0,6,0.00,,,0.00,meteohub,2013-08-01 02:07:00,
2013-07-31 19:12:00,95.5,18.1,-100.00,SSW,207,10.0,16.0,6,0.00,,,0.00,meteohub,2013-08-01 02:12:00,
2013-07-31 19:17:00,95.4,21.6,-100.00,South,182,7.0,15.0,7,0.00,,,0.00,meteohub,2013-08-01 02:17:00,
2013-07-31 19:23:00,95.4,21.6,-100.00,SW,223,8.0,14.0,7,0.00,,,0.00,meteohub,2013-08-01 02:23:00,
2013-07-31 19:28:00,95.0,24.4,-100.00,SW,217,6.0,14.0,8,0.00,,,0.00,meteohub,2013-08-01 02:28:00,
2013-07-31 19:33:00,94.6,27.1,-100.00,SW,234,5.0,14.0,9,0.00,,,0.00,meteohub,2013-08-01 02:33:00,
2013-07-31 19:38:00,93.9,29.1,-100.00,WSW,250,11.0,12.0,10,0.00,,,0.00,meteohub,2013-08-01 02:38:00,
2013-07-31 19:43:00,93.0,28.4,-100.00,SW,229,15.0,15.0,10,0.00,,,0.00,meteohub,2013-08-01 02:43:00,
2013-07-31 19:48:00,92.7,28.2,-100.00,WSW,239,14.0,17.0,10,0.00,,,0.00,meteohub,2013-08-01 02:48:00,
2013-07-31 19:53:00,92.1,27.7,-100.00,WSW,247,8.0,19.0,10,0.00,,,0.00,meteohub,2013-08-01 02:53:00,
2013-07-31 19:58:00,91.8,29.8,-100.00,SW,232,15.0,19.0,11,0.00,,,0.00,meteohub,2013-08-01 02:58:00,
2013-07-31 20:03:00,91.2,29.3,-100.00,SW,236,6.0,19.0,11,0.00,,,0.00,meteohub,2013-08-01 03:03:00,
2013-07-31 20:08:00,90.9,29.1,-100.00,SW,219,12.0,19.0,11,0.00,,,0.00,meteohub,2013-08-01 03:08:00,
2013-07-31 20:13:00,90.7,28.9,-100.00,SW,235,14.0,17.0,11,0.00,,,0.00,meteohub,2013-08-01 03:13:00,
2013-07-31 20:18:00,90.1,30.7,-100.00,SW,217,7.0,17.0,12,0.00,,,0.00,meteohub,2013-08-01 03:18:00,
2013-07-31 20:23:00,89.8,30.4,-100.00,WSW,239,9.0,16.0,12,0.00,,,0.00,meteohub,2013-08-01 03:23:00,
2013-07-31 20:28:00,89.4,28.0,-100.00,SW,223,10.0,16.0,11,0.00,,,0.00,meteohub,2013-08-01 03:28:00,
2013-07-31 20:33:00,89.6,28.2,-100.00,South,190,11.0,16.0,11,0.00,,,0.00,meteohub,2013-08-01 03:33:00,
2013-07-31 20:38:00,89.8,28.2,-100.00,SSW,207,6.0,19.0,11,0.00,,,0.00,meteohub,2013-08-01 03:38:00,
2013-07-31 20:43:00,89.6,28.2,-100.00,SW,221,10.0,19.0,11,0.00,,,0.00,meteohub,2013-08-01 03:43:00,
2013-07-31 20:48:00,89.2,30.0,-100.00,South,181,16.0,19.0,12,0.00,,,0.00,meteohub,2013-08-01 03:48:00,
2013-07-31 20:53:00,88.9,31.6,-100.00,SSW,213,5.0,18.0,13,0.00,,,0.00,meteohub,2013-08-01 03:53:00,
2013-07-31 20:58:00,88.5,31.5,-100.00,SW,221,7.0,18.0,13,0.00,,,0.00,meteohub,2013-08-01 03:58:00,
2013-07-31 21:01:00,88.0,30.9,-100.00,WSW,254,6.0,18.0,13,0.00,,,0.00,meteohub,2013-08-01 04:01:00,
2013-07-31 21:02:00,88.0,30.9,-100.00,West,263,11.0,18.0,13,0.00,,,0.00,meteohub,2013-08-01 04:02:00,
2013-07-31 21:07:00,87.1,32.2,-100.00,WSW,238,10.0,17.0,14,0.00,,,0.00,meteohub,2013-08-01 04:07:00,
2013-07-31 21:12:00,86.7,31.8,-100.00,WSW,244,14.0,18.0,14,0.00,,,0.00,meteohub,2013-08-01 04:12:00,
2013-07-31 21:17:00,86.9,32.0,-100.00,WSW,240,11.0,20.0,14,0.00,,,0.00,meteohub,2013-08-01 04:17:00,
2013-07-31 21:22:00,86.5,31.6,-100.00,WSW,243,8.0,21.0,14,0.00,,,0.00,meteohub,2013-08-01 04:22:00,
2013-07-31 21:27:00,85.8,32.9,-100.00,WSW,240,7.0,21.0,15,0.00,,,0.00,meteohub,2013-08-01 04:27:00,
2013-07-31 21:32:00,85.5,32.5,-100.00,SSW,196,5.0,18.0,15,0.00,,,0.00,meteohub,2013-08-01 04:32:00,
2013-07-31 21:37:00,85.3,30.7,-100.00,SW,224,7.0,16.0,14,0.00,,,0.00,meteohub,2013-08-01 04:37:00,
2013-07-31 21:42:00,85.1,33.8,-100.00,SW,219,8.0,16.0,16,0.00,,,0.00,meteohub,2013-08-01 04:42:00,
2013-07-31 21:47:00,84.6,33.4,-100.00,SW,218,10.0,16.0,16,0.00,,,0.00,meteohub,2013-08-01 04:47:00,
2013-07-31 21:52:00,84.2,33.1,-100.00,SW,219,6.0,15.0,16,0.00,,,0.00,meteohub,2013-08-01 04:52:00,
2013-07-31 21:57:00,84.4,33.3,-100.00,SW,228,7.0,16.0,16,0.00,,,0.00,meteohub,2013-08-01 04:57:00,
2013-07-31 22:02:00,84.7,32.0,-100.00,SW,229,11.0,21.0,15,0.00,,,0.00,meteohub,2013-08-01 05:02:00,
2013-07-31 22:07:00,84.7,32.0,-100.00,SW,214,8.0,21.0,15,0.00,,,0.00,meteohub,2013-08-01 05:07:00,
2013-07-31 22:12:00,84.7,33.6,-100.00,WSW,237,12.0,21.0,16,0.00,,,0.00,meteohub,2013-08-01 05:12:00,
2013-07-31 22:17:00,84.4,33.3,-100.00,WSW,248,4.0,17.0,16,0.00,,,0.00,meteohub,2013-08-01 05:17:00,
2013-07-31 22:22:00,84.0,34.5,-100.00,WSW,239,10.0,18.0,17,0.00,,,0.00,meteohub,2013-08-01 05:22:00,
2013-07-31 22:27:00,83.8,34.3,-100.00,SW,223,13.0,18.0,17,0.00,,,0.00,meteohub,2013-08-01 05:27:00,
2013-07-31 22:32:00,83.8,34.3,-100.00,SW,228,10.0,18.0,17,0.00,,,0.00,meteohub,2013-08-01 05:32:00,
2013-07-31 22:37:00,83.5,34.2,-100.00,SSW,213,6.0,15.0,17,0.00,,,0.00,meteohub,2013-08-01 05:37:00,
2013-07-31 22:42:00,83.3,34.0,-100.00,SW,231,5.0,15.0,17,0.00,,,0.00,meteohub,2013-08-01 05:42:00,
2013-07-31 22:47:00,83.3,34.0,-100.00,SW,219,10.0,16.0,17,0.00,,,0.00,meteohub,2013-08-01 05:47:00,
2013-07-31 22:52:00,82.9,35.1,-100.00,WSW,238,10.0,17.0,18,0.00,,,0.00,meteohub,2013-08-01 05:52:00,
2013-07-31 22:57:00,82.6,34.7,-100.00,SW,229,12.0,17.0,18,0.00,,,0.00,meteohub,2013-08-01 05:57:00,
2013-07-31 23:02:00,82.2,35.8,-100.00,SW,230,8.0,16.0,19,0.00,,,0.00,meteohub,2013-08-01 06:02:00,
2013-07-31 23:07:00,82.2,35.8,-100.00,SW,228,10.0,16.0,19,0.00,,,0.00,meteohub,2013-08-01 06:07:00,
2013-07-31 23:12:00,82.0,37.0,-100.00,SW,225,9.0,15.0,20,0.00,,,0.00,meteohub,2013-08-01 06:12:00,
2013-07-31 23:17:00,81.3,36.5,-100.00,SSW,202,2.0,15.0,20,0.00,,,0.00,meteohub,2013-08-01 06:17:00,
2013-07-31 23:22:00,80.8,37.2,-100.00,SW,219,5.0,13.0,21,0.00,,,0.00,meteohub,2013-08-01 06:22:00,
2013-07-31 23:27:00,80.8,37.2,-100.00,SW,216,4.0,12.0,21,0.00,,,0.00,meteohub,2013-08-01 06:27:00,
2013-07-31 23:32:00,81.0,37.4,-100.00,SW,217,5.0,14.0,21,0.00,,,0.00,meteohub,2013-08-01 06:32:00,
2013-07-31 23:37:00,80.8,37.2,-100.00,SW,228,6.0,15.0,21,0.00,,,0.00,meteohub,2013-08-01 06:37:00,
2013-07-31 23:42:00,80.1,37.8,-100.00,SSW,194,7.0,15.0,22,0.00,,,0.00,meteohub,2013-08-01 06:42:00,
2013-07-31 23:47:00,80.1,37.8,-100.00,SSW,195,5.0,15.0,22,0.00,,,0.00,meteohub,2013-08-01 06:47:00,
2013-07-31 23:52:00,79.9,39.9,-100.00,SSW,206,7.0,15.0,24,0.00,,,0.00,meteohub,2013-08-01 06:52:00,
2013-07-31 23:57:00,79.7,39.7,-100.00,SSW,213,11.0,15.0,24,0.00,,,0.00,meteohub,2013-08-01 06:57:00,